Manhattan, KS

2:32 PM CDT on September 22, 2019 (GMT -0500)
Manhattan Regional

Weather History for KMHK - August, 2019

Change the Weather History Date:

Thursday, August 22, 2019

  Actual Average Record
Temperature  
Mean Temperature 77 °F 76 °F  
Max Temperature 82 °F 89 °F 102 °F (2001)
Min Temperature 72 °F 64 °F 53 °F (2012)
Degree Days  
Heating Degree Days 0 0  
Month to date heating degree days 0 0  
Since 1 June heating degree days 4 12  
Since 1 July heating degree days 0 1  
Cooling Degree Days 12 11  
Month to date cooling degree days 317 286  
Year to date cooling degree days 1156 1092  
Since 1 June cooling degree days 1051 992  
Growing Degree Days 26 (Base 50)    
Moisture  
Dew Point 70 °F    
Average Humidity 81    
Maximum Humidity 93    
Minimum Humidity 69    
Precipitation  
Precipitation 0.00 in 0.17 in 1.02 in (2005)
Month to date precipitation 6.07 2.84  
Year to date precipitation 30.28 23.10  
Sea Level Pressure  
Sea Level Pressure 29.97 in    
Wind  
Wind Speed 5 mph (East)    
Max Wind Speed 10 mph    
Max Gust Speed 14 mph    
Visibility 10 miles    
Events Thunderstorm    
T = Trace of Precipitation, MM = Missing Value Source: NWS Daily Summary

Daily Weather History Graph

Daily Weather History Graph

Search for Another Location

Airport or City:

Astronomy

Aug. 22, 2019 Rise Set
Actual Time 6:46 AM CDT 8:12 PM CDT
Civil Twilight 6:18 AM CDT 8:40 PM CDT
Nautical Twilight 5:44 AM CDT 9:14 PM CDT
Astronomical Twilight 5:08 AM CDT 9:49 PM CDT
Moon No Moon Rise 1:19 PM CDT
Length of Visible Light 14h 22m
Length of Day
13h 26m
Waning Gibbous, 59% of the Moon is Illuminated
Aug 22
Waning Gibbous
Aug 23
Last Quarter
Aug 30
New
Sep 5
First Quarter
Sep 13
Full

Hourly Weather History & Observations

Time (CDT) Temp. Heat Index Dew Point Humidity Pressure Visibility Wind Dir Wind Speed Gust Speed Precip Events Conditions
12:52 AM 73.0 °F - 69.1 °F 87% 29.99 in 10.0 mi East 5.8 mph - N/A   Overcast
1:52 AM 73.0 °F - 70.0 °F 90% 29.97 in 10.0 mi NE 5.8 mph - N/A   Overcast
2:50 AM 71.6 °F - 69.8 °F 94% 29.99 in 10.0 mi ENE 6.9 mph - N/A   Mostly Cloudy
2:52 AM 72.0 °F - 70.0 °F 93% 29.96 in 10.0 mi ENE 4.6 mph - N/A   Mostly Cloudy
3:52 AM 73.0 °F - 70.0 °F 90% 29.96 in 10.0 mi ENE 5.8 mph - N/A   Mostly Cloudy
4:25 AM 73.0 °F - 70.0 °F 90% 29.97 in 10.0 mi ENE 8.1 mph - N/A   Overcast
4:36 AM 73.0 °F - 70.0 °F 90% 29.97 in 10.0 mi ENE 8.1 mph - N/A   Overcast
4:45 AM 73.0 °F - 70.0 °F 90% 29.97 in 10.0 mi ENE 6.9 mph - N/A   Overcast
4:52 AM 73.0 °F - 70.0 °F 90% 29.94 in 10.0 mi ENE 8.1 mph - N/A   Overcast
4:59 AM 73.0 °F - 70.0 °F 90% 29.96 in 10.0 mi East 6.9 mph - N/A   Mostly Cloudy
5:23 AM 72.0 °F - 70.0 °F 93% 29.97 in 10.0 mi East 5.8 mph - N/A   Mostly Cloudy
5:38 AM 73.0 °F - 70.0 °F 90% 29.97 in 10.0 mi East 4.6 mph - N/A   Overcast
5:44 AM 73.0 °F - 70.0 °F 90% 29.97 in 10.0 mi East 4.6 mph - N/A   Overcast
5:52 AM 73.0 °F - 70.0 °F 90% 29.95 in 10.0 mi Calm Calm - N/A   Overcast
6:15 AM 73.0 °F - 70.0 °F 90% 29.98 in 10.0 mi East 3.5 mph - N/A   Overcast
6:52 AM 72.0 °F - 70.0 °F 93% 29.98 in 10.0 mi East 4.6 mph - N/A   Overcast
7:37 AM 73.0 °F - 70.0 °F 90% 30.01 in 10.0 mi East 3.5 mph - N/A   Overcast
7:52 AM 73.0 °F - 70.0 °F 90% 29.99 in 10.0 mi East 3.5 mph - N/A   Overcast
8:41 AM 73.0 °F - 70.0 °F 90% 30.01 in 10.0 mi ESE 3.5 mph - N/A   Overcast
8:52 AM 73.9 °F - 70.0 °F 87% 29.98 in 10.0 mi East 3.5 mph - N/A   Overcast
9:14 AM 73.9 °F - 70.0 °F 87% 30.01 in 10.0 mi SSE 6.9 mph - N/A   Overcast
9:31 AM 73.9 °F - 69.1 °F 85% 30.01 in 10.0 mi SSE 5.8 mph - N/A   Overcast
9:52 AM 73.9 °F - 69.1 °F 85% 29.98 in 10.0 mi SE 3.5 mph - N/A   Overcast
10:15 AM 73.9 °F - 69.1 °F 85% 30.02 in 10.0 mi ESE 3.5 mph - N/A   Overcast
10:29 AM 73.9 °F - 69.1 °F 85% 30.01 in 10.0 mi East 5.8 mph - N/A   Overcast
10:52 AM 75.0 °F - 69.1 °F 82% 29.99 in 10.0 mi ESE 5.8 mph - N/A   Overcast
11:52 AM 78.1 °F - 70.0 °F 76% 29.99 in 10.0 mi Variable 3.5 mph - N/A   Overcast
12:27 PM 79.0 °F - 69.1 °F 72% 29.99 in 10.0 mi East 8.1 mph - N/A   Scattered Clouds
12:52 PM 80.1 °F 83.2 °F 70.0 °F 71% 29.95 in 10.0 mi NE 6.9 mph - N/A   Partly Cloudy
1:52 PM 81.0 °F 84.4 °F 70.0 °F 69% 29.95 in 10.0 mi ENE 9.2 mph - N/A   Partly Cloudy
2:52 PM 80.1 °F 83.2 °F 70.0 °F 71% 29.95 in 10.0 mi East 5.8 mph - N/A   Mostly Cloudy
3:52 PM 81.0 °F 84.4 °F 70.0 °F 69% 29.93 in 10.0 mi East 6.9 mph - N/A   Scattered Clouds
4:52 PM 82.0 °F 86.3 °F 71.1 °F 69% 29.92 in 10.0 mi East 8.1 mph - N/A   Clear
5:52 PM 81.0 °F 84.9 °F 71.1 °F 72% 29.91 in 10.0 mi East 8.1 mph - N/A   Mostly Cloudy
6:52 PM 79.0 °F - 71.1 °F 77% 29.91 in 10.0 mi ENE 8.1 mph - N/A   Clear
7:52 PM 78.1 °F - 71.1 °F 79% 29.92 in 10.0 mi ENE 6.9 mph - N/A Thunderstorm Mostly Cloudy
8:33 PM 77.0 °F - 71.1 °F 82% 29.94 in 10.0 mi ESE 6.9 mph - N/A   Mostly Cloudy
8:52 PM 75.9 °F - 71.1 °F 85% 29.91 in 10.0 mi East 6.9 mph - N/A   Scattered Clouds
9:52 PM 75.0 °F - 71.1 °F 87% 29.95 in 10.0 mi SSE 4.6 mph - N/A   Partly Cloudy
10:15 PM 75.0 °F - 71.1 °F 87% 29.98 in 10.0 mi Calm Calm - N/A   Mostly Cloudy
10:52 PM 75.0 °F - 71.1 °F 87% 29.98 in 10.0 mi Calm Calm - N/A   Overcast
11:09 PM 75.0 °F - 71.1 °F 87% 30.01 in 10.0 mi Calm Calm - N/A   Overcast
11:52 PM 73.9 °F - 71.1 °F 91% 29.98 in 10.0 mi NE 3.5 mph - N/A   Clear